Wind_Speed
12 12 13 16 16 16 15 16 18 19 17 17 16 16 16 17 18 19 20 20 20 21 22 22 22 21 18 9 25 20 23 23 13 8 14 18 21 20 20 18 21 21 19 25 22 19 21
11 10 13 14 16 17 16 17 18 19 23 19 19 17 16 17 19 20 20 21 21 22 23 22 22 19 11 18 11 12 15 11 13 15 17 18 19 19 20 19 19 20 19 19 25 23 22
13 13 16 18 16 15 17 18 18 20 21 21 24 19 17 18 20 21 21 21 22 23 23 22 20 17 12 29 11 9 11 9 11 17 21 21 20 17 12 17 22 23 20 21 22 24 23
20 15 15 16 15 18 20 20 20 18 21 22 22 27 21 20 20 21 22 21 22 23 23 22 17 8 12 12 12 17 17 21 14 10 18 17 16 22 22 20 18 15 18 20 19 18 17
20 21 21 18 17 17 18 20 22 20 19 22 22 24 27 22 21 21 22 22 22 22 20 17 6 7 12 10 8 8 12 18 17 21 21 15 15 22 19 17 16 16 18 20 21 13 11
20 19 16 24 27 25 23 19 20 21 20 22 21 23 27 26 21 20 21 20 17 15 11 6 7 8 11 6 7 8 8 8 13 14 18 19 15 16 19 17 18 19 20 21 19 15 10
22 17 20 22 25 20 27 27 28 23 19 18 20 22 24 27 21 17 20 18 8 7 9 13 14 21 27 19 12 7 8 8 12 14 18 24 17 22 26 24 23 21 23 18 15 10 6
20 21 20 23 22 20 20 20 21 24 19 21 19 20 24 28 23 13 9 8 4 7 17 22 30 32 33 26 17 17 12 11 17 17 19 18 24 23 23 22 22 23 22 22 20 18 8
22 24 25 24 24 26 21 20 22 21 20 18 16 18 25 26 16 7 7 5 5 11 10 17 21 18 15 18 22 22 20 18 18 19 20 21 19 24 24 22 21 22 22 19 22 18 9
20 23 22 26 28 23 24 26 26 26 22 18 18 18 22 22 9 7 5 3 7 9 6 7 7 5 7 6 9 20 21 24 18 24 20 20 22 18 16 26 22 22 19 19 21 17 14
31 32 30 27 24 25 24 25 23 23 25 20 18 16 16 15 13 7 6 8 9 4 6 6 8 5 6 10 6 8 8 21 25 21 14 21 16 23 20 21 19 20 14 15 20 15 17
26 28 28 29 31 32 31 28 24 22 22 20 18 15 15 12 9 10 10 9 4 7 13 5 7 9 10 12 8 5 5 10 15 25 21 21 14 13 21 18 15 8 13 14 11 15 15
27 30 28 22 28 25 22 22 23 25 19 20 18 15 14 9 9 5 8 7 7 9 1 9 6 7 7 6 10 8 8 14 9 14 21 19 22 13 11 15 14 15 10 6 4 10 13
27 30 26 21 20 28 25 27 27 27 21 16 15 16 13 11 10 10 6 9 13 9 19 7 3 8 11 5 7 8 9 12 10 12 12 19 20 24 16 15 12 19 18 7 11 9 11
25 27 26 27 27 30 31 26 20 18 19 18 16 15 14 13 12 11 14 13 11 14 14 7 11 12 10 6 5 7 12 13 4 6 9 4 14 2 22 22 17 15 16 18 18 15 8
19 17 21 22 22 25 23 22 20 17 14 15 15 14 17 11 13 14 11 23 17 14 8 6 14 4 14 10 7 6 11 3 6 3 8 1 5 2 10 9 16 25 10 12 11 15 12
20 19 21 21 21 19 22 23 18 21 16 11 11 7 6 14 14 15 13 17 17 5 4 7 10 7 9 0 5 4 5 6 1 2 7 6 5 9 5 10 12 13 17 13 12 13 10
21 20 21 22 23 20 21 20 18 16 15 13 11 5 8 15 13 12 13 16 14 10 11 11 6 8 9 1 4 2 4 5 5 7 7 5 4 6 8 5 9 11 14 19 11 14 12
22 20 22 22 20 21 19 17 20 14 16 12 8 15 7 14 8 12 13 15 17 14 14 15 13 7 4 8 4 5 1 3 6 4 5 5 4 6 5 8 5 7 9 7 9 7 14
24 23 23 21 19 19 17 17 21 17 17 17 6 4 14 14 17 15 15 16 15 20 18 19 14 12 12 13 10 7 2 1 1 2 5 6 8 9 8 7 7 3 9 9 6 7 11
24 21 21 23 21 19 21 19 17 19 18 17 10 7 9 5 13 15 14 9 18 16 15 16 18 20 16 15 15 16 15 12 8 6 8 4 10 11 13 14 14 14 13 14 16 14 14
23 24 24 23 21 21 20 20 19 19 19 24 8 8 17 22 11 17 16 18 15 15 16 14 14 14 16 18 16 7 13 12 10 5 5 3 8 10 12 14 15 18 20 20 21 20 21
25 24 23 22 24 24 24 22 22 21 23 22 20 22 18 7 14 12 12 19 19 16 10 21 13 11 12 11 17 14 12 13 10 6 3 4 4 3 10 10 9 10 17 19 20 22 20
26 25 24 24 22 23 22 22 23 23 27 27 19 19 15 13 12 13 17 8 12 16 16 16 16 11 8 1 4 10 14 16 16 15 14 6 7 3 5 3 6 10 8 9 14 16 14
27 25 25 25 25 25 25 26 26 25 25 29 24 20 14 10 19 18 19 13 10 12 13 16 16 12 3 7 4 7 8 10 17 20 18 17 7 4 4 8 12 16 6 7 7 11 14
30 29 28 29 30 31 31 31 30 30 30 30 31 25 20 10 17 20 14 17 11 11 13 18 16 11 7 0 4 5 7 10 8 8 20 17 14 6 6 7 5 7 6 7 11 6 5
30 31 32 33 34 32 33 34 35 36 35 34 30 31 26 18 23 19 15 16 19 14 8 9 16 11 9 4 5 8 10 3 4 9 15 13 9 13 12 7 8 13 12 10 8 3 11
33 34 33 31 31 29 30 31 33 36 40 39 42 33 35 21 27 22 25 17 22 22 11 5 7 7 4 4 5 8 6 6 8 3 13 11 9 6 8 5 10 9 3 4 8 13 16
35 33 31 30 29 28 27 28 31 35 39 42 41 42 34 30 12 22 29 26 21 21 15 5 2 3 2 5 6 4 5 4 11 9 15 7 10 8 9 9 12 5 8 11 12 15 14
Wind_Direction
314 311 313 321 319 312 314 315 315 313 311 310 309 308 313 314 317 317 318 318 318 314 313 314 314 317 319 262 258 283 275 277 282 241 218 216 225 224 231 240 247 249 254 275 268 266 264
299 297 296 301 306 306 313 314 305 313 316 316 314 305 306 310 310 312 314 314 314 311 309 310 310 313 301 264 269 264 267 252 228 232 228 225 234 242 254 252 263 267 258 267 270 264 262
300 297 292 292 292 299 302 305 307 312 319 320 317 310 300 302 304 306 309 310 310 308 307 306 304 303 264 249 270 258 267 242 249 225 232 235 240 251 250 261 265 265 266 271 259 257 258
285 288 289 286 288 286 289 293 294 301 305 309 311 316 306 297 298 302 305 308 309 307 306 303 301 275 256 269 265 262 253 244 232 231 232 234 240 251 249 261 276 265 258 262 261 240 252
292 282 276 281 280 283 283 288 289 289 295 299 306 308 312 302 294 299 304 309 311 307 300 299 322 220 272 273 280 283 259 245 236 239 237 236 239 241 239 239 254 250 255 259 255 196 245
302 305 298 284 280 275 275 278 283 282 287 288 297 301 307 308 298 301 308 313 314 304 317 288 263 240 263 272 277 273 260 232 227 228 219 222 230 233 227 230 234 237 245 241 258 279 197
303 299 298 293 293 306 275 278 276 276 282 283 292 298 303 311 312 307 321 340 284 252 238 259 269 266 281 282 294 258 226 223 223 213 208 202 219 223 229 222 242 252 272 280 270 257 273
287 287 288 287 294 291 288 294 279 270 281 274 285 294 298 307 314 312 338 318 339 315 294 273 261 262 260 260 278 247 215 227 208 219 214 221 228 232 239 242 235 244 255 261 271 275 243
296 288 280 280 286 287 282 278 285 278 271 272 281 296 304 299 319 335 303 275 321 327 271 290 254 252 257 234 237 247 217 214 237 230 228 226 230 224 239 229 234 242 243 253 257 273 263
286 288 288 279 281 279 282 278 280 281 266 266 274 294 304 312 329 300 287 268 317 328 280 246 198 224 187 218 238 236 228 216 227 245 241 241 242 246 229 236 226 243 230 252 271 270 261
289 279 283 286 281 284 279 284 277 288 266 266 278 286 294 321 285 292 294 304 319 303 278 108 141 155 165 218 341 182 206 212 236 229 237 235 231 232 229 232 226 248 254 252 249 262 262
286 284 276 279 276 271 270 271 274 280 275 265 271 265 279 316 287 260 273 296 289 231 242 180 151 190 200 211 238 140 188 215 232 243 248 255 245 248 244 225 236 225 233 226 255 249 245
293 292 294 272 280 275 265 273 274 276 279 261 264 251 266 273 245 232 278 259 226 239 115 208 214 192 234 198 215 209 179 205 205 207 227 228 250 218 249 223 197 205 212 201 232 244 243
292 285 293 291 288 294 290 279 270 268 265 257 250 259 271 260 243 249 244 231 238 254 229 111 283 253 238 182 205 212 205 219 222 233 252 221 230 227 194 222 193 206 215 216 203 247 254
293 289 289 288 277 274 274 277 268 256 257 254 256 263 254 245 231 221 232 224 233 248 294 321 283 250 198 199 268 203 217 222 120 288 265 239 225 38 213 219 237 200 217 236 273 263 274
311 292 285 291 287 287 276 280 280 274 265 247 250 255 247 232 213 204 228 240 244 268 347 288 259 246 249 174 223 212 186 146 152 325 275 82 258 230 182 223 245 233 216 221 233 250 245
300 297 292 287 286 284 276 263 261 257 253 243 235 248 228 197 192 211 226 231 235 247 301 281 277 280 282 40 282 197 176 112 318 22 318 320 268 152 205 212 201 207 237 242 252 233 256
291 289 286 282 278 274 275 269 268 248 233 226 236 238 193 179 196 212 232 234 253 248 243 254 274 272 282 250 254 251 196 38 7 303 295 29 311 265 243 26 333 317 216 224 232 239 228
285 288 283 279 284 279 266 258 265 234 221 219 234 239 219 190 222 220 235 248 250 222 245 239 233 220 270 285 290 205 310 55 2 332 18 7 237 244 232 225 226 252 239 278 246 273 266
285 286 286 276 280 269 259 257 263 219 221 219 233 235 214 213 238 268 231 232 240 227 257 260 260 271 272 258 257 278 258 214 301 318 351 296 270 264 288 11 349 239 245 239 273 258 247
283 281 275 271 269 260 257 250 254 218 218 214 229 243 234 205 230 235 251 260 230 219 227 235 241 249 254 264 269 265 261 262 237 170 250 253 263 259 262 284 277 267 261 256 250 249 256
281 277 274 268 259 261 253 248 240 226 221 217 221 227 256 247 246 218 232 247 246 240 218 232 239 219 229 240 240 277 239 242 243 220 259 345 258 262 251 264 272 276 271 268 264 260 259
273 274 271 264 256 257 251 245 235 225 215 215 228 243 268 261 243 241 242 231 237 244 220 253 237 242 251 239 246 283 291 296 278 277 242 245 241 231 256 254 268 271 256 256 263 263 256
273 273 268 263 256 254 250 242 238 227 219 222 218 230 235 249 250 245 237 239 264 245 247 242 241 216 257 288 247 253 251 251 247 249 238 243 225 233 273 288 247 241 289 304 297 297 262
275 271 266 259 254 251 249 247 240 233 226 225 229 226 232 244 246 245 251 233 242 264 241 249 244 253 268 234 249 244 221 231 237 236 229 215 194 219 239 231 270 299 271 348 310 278 7
269 268 265 261 260 256 251 245 241 237 231 230 229 225 232 249 247 245 254 257 256 253 252 243 241 230 229 37 230 247 211 213 184 195 207 208 203 219 200 245 236 142 88 18 324 247 32
268 269 268 265 263 256 250 244 238 234 231 227 229 222 220 243 247 252 247 250 246 252 255 265 238 196 187 192 243 247 248 239 208 180 181 191 192 218 226 243 271 297 315 321 254 44 341
271 270 267 263 259 251 245 241 238 232 227 225 229 220 214 230 245 239 244 255 253 249 248 243 241 185 160 224 245 228 250 224 247 276 172 177 175 189 233 255 259 245 175 276 351 318 327
269 266 263 259 250 249 247 240 236 232 227 218 224 224 217 219 237 236 240 241 235 251 275 245 250 78 190 235 237 257 243 235 232 241 174 207 200 193 197 208 246 204 269 286 309 304 315
Height
1543 1541 1541 1540 1539 1537 1535 1533 1531 1529 1527 1526 1523 1520 1518 1515 1513 1512 1509 1507 1504 1502 1499 1497 1494 1492 1490 1491 1480 1479 1476 1475 1476 1478 1480 1481 1481 1477 1473 1468 1467 1463 1462 1461 1456 1456 1455
1539 1540 1539 1536 1536 1535 1534 1531 1529 1528 1525 1524 1522 1518 1514 1512 1511 1510 1507 1505 1502 1499 1497 1494 1491 1490 1490 1486 1476 1474 1473 1473 1474 1477 1478 1478 1477 1475 1470 1465 1463 1460 1457 1457 1455 1451 1450
1538 1537 1536 1534 1533 1533 1533 1530 1528 1526 1523 1521 1519 1516 1512 1510 1509 1507 1505 1502 1499 1496 1493 1490 1488 1485 1487 1474 1473 1472 1470 1470 1473 1472 1474 1476 1475 1475 1471 1469 1465 1462 1459 1454 1450 1447 1444
1536 1535 1533 1532 1529 1530 1529 1528 1526 1524 1522 1520 1516 1515 1511 1508 1507 1504 1501 1498 1495 1491 1488 1485 1484 1482 1477 1470 1466 1465 1467 1466 1466 1471 1472 1472 1473 1473 1471 1468 1464 1463 1457 1453 1438 1433 1435
1532 1531 1530 1529 1528 1526 1524 1525 1525 1521 1520 1518 1515 1512 1511 1506 1503 1500 1497 1494 1491 1487 1484 1481 1481 1481 1471 1464 1462 1462 1464 1463 1463 1465 1470 1472 1473 1471 1470 1466 1465 1458 1455 1441 1430 1429 1433
1527 1527 1525 1526 1525 1524 1522 1520 1519 1520 1514 1517 1514 1510 1509 1504 1498 1496 1493 1491 1487 1482 1480 1479 1479 1483 1465 1464 1461 1460 1461 1461 1461 1461 1466 1468 1467 1462 1460 1456 1456 1456 1447 1437 1435 1423 1427
1524 1522 1522 1522 1520 1519 1518 1517 1517 1515 1511 1513 1510 1508 1506 1501 1495 1492 1492 1488 1487 1482 1481 1475 1468 1465 1459 1461 1460 1457 1458 1458 1459 1458 1455 1457 1457 1446 1446 1444 1443 1443 1437 1430 1421 1418 1425
1519 1519 1517 1517 1517 1515 1515 1516 1512 1511 1506 1511 1507 1504 1502 1499 1493 1491 1492 1493 1493 1492 1475 1467 1458 1456 1455 1460 1457 1455 1454 1456 1453 1449 1448 1446 1444 1439 1439 1438 1440 1441 1442 1435 1427 1421 1424
1515 1515 1513 1512 1511 1511 1512 1510 1508 1506 1507 1505 1503 1502 1500 1495 1492 1491 1493 1494 1491 1489 1478 1452 1448 1447 1450 1453 1449 1445 1448 1446 1445 1444 1437 1437 1431 1432 1435 1434 1440 1437 1440 1436 1433 1421 1420
1509 1509 1509 1506 1506 1505 1506 1506 1505 1503 1502 1501 1500 1498 1497 1493 1493 1493 1493 1492 1491 1488 1472 1438 1442 1442 1445 1448 1445 1440 1441 1442 1440 1437 1433 1427 1428 1424 1429 1430 1431 1434 1431 1434 1432 1429 1433
1504 1505 1503 1501 1501 1500 1501 1500 1500 1498 1497 1498 1496 1495 1494 1492 1490 1492 1493 1491 1490 1490 1457 1431 1436 1439 1441 1444 1439 1436 1437 1438 1434 1432 1435 1423 1424 1424 1424 1423 1425 1429 1430 1432 1431 1426 1429
1498 1498 1496 1496 1495 1494 1495 1495 1495 1494 1493 1493 1493 1491 1491 1490 1489 1491 1491 1490 1491 1482 1448 1427 1429 1433 1436 1437 1435 1434 1436 1435 1437 1438 1427 1423 1416 1419 1417 1419 1422 1427 1433 1429 1429 1427 1429
1492 1491 1488 1488 1488 1488 1488 1489 1490 1490 1490 1489 1489 1488 1487 1490 1489 1489 1490 1490 1478 1456 1427 1422 1424 1428 1429 1428 1430 1430 1431 1433 1429 1437 1430 1423 1420 1418 1419 1418 1420 1426 1430 1439 1458 1447 1425
1486 1484 1482 1483 1483 1483 1482 1483 1483 1485 1486 1485 1485 1484 1484 1485 1486 1488 1489 1485 1465 1429 1426 1428 1432 1430 1429 1428 1428 1427 1424 1426 1423 1421 1416 1420 1426 1411 1412 1411 1415 1419 1423 1425 1442 1431 1417
1479 1477 1478 1477 1478 1478 1476 1478 1479 1479 1480 1481 1481 1481 1480 1480 1482 1485 1486 1470 1447 1439 1429 1431 1433 1430 1422 1429 1429 1421 1422 1417 1420 1424 1419 1411 1408 1403 1403 1409 1413 1414 1422 1412 1417 1413 1417
1473 1471 1473 1472 1472 1472 1472 1473 1475 1476 1477 1478 1478 1477 1475 1476 1478 1482 1478 1459 1445 1442 1446 1445 1440 1426 1417 1424 1428 1423 1421 1421 1427 1430 1424 1414 1413 1406 1403 1410 1409 1409 1401 1418 1413 1428 1431
1469 1468 1469 1468 1467 1466 1467 1468 1471 1473 1474 1475 1475 1473 1468 1471 1475 1476 1462 1452 1449 1447 1453 1448 1438 1433 1428 1426 1426 1425 1425 1429 1430 1429 1425 1421 1416 1409 1410 1408 1404 1409 1407 1406 1402 1405 1411
1463 1463 1463 1463 1462 1462 1463 1465 1466 1468 1471 1472 1472 1470 1464 1467 1471 1464 1456 1451 1451 1450 1454 1453 1449 1445 1440 1436 1435 1432 1427 1427 1436 1435 1427 1427 1420 1413 1407 1401 1404 1402 1397 1402 1412 1408 1398
1458 1457 1457 1458 1458 1457 1458 1461 1463 1465 1467 1470 1467 1464 1463 1465 1457 1452 1454 1450 1449 1451 1452 1448 1446 1444 1443 1441 1439 1435 1434 1437 1438 1434 1432 1433 1423 1419 1412 1408 1406 1406 1399 1397 1398 1402 1405
1452 1451 1451 1452 1452 1453 1454 1457 1458 1460 1464 1467 1465 1459 1458 1460 1457 1450 1448 1446 1448 1450 1452 1449 1447 1444 1445 1441 1439 1437 1435 1438 1441 1440 1444 1442 1427 1422 1414 1412 1413 1415 1409 1406 1409 1414 1407
1446 1446 1445 1446 1447 1449 1450 1452 1454 1456 1460 1464 1461 1454 1450 1450 1453 1453 1452 1449 1443 1445 1450 1448 1448 1447 1445 1441 1437 1436 1436 1437 1439 1441 1439 1439 1433 1424 1420 1417 1415 1414 1413 1411 1410 1411 1413
1438 1438 1438 1439 1441 1443 1445 1447 1450 1453 1456 1458 1456 1456 1453 1446 1444 1446 1448 1445 1445 1439 1440 1444 1442 1437 1439 1439 1437 1431 1435 1436 1434 1434 1435 1439 1433 1427 1424 1420 1416 1413 1407 1403 1401 1401 1399
1431 1431 1431 1432 1433 1436 1438 1441 1444 1448 1451 1450 1452 1453 1453 1444 1442 1444 1440 1439 1441 1441 1439 1439 1441 1437 1437 1436 1438 1437 1440 1442 1440 1438 1441 1441 1433 1436 1426 1413 1412 1415 1403 1399 1397 1395 1394
1423 1423 1424 1425 1427 1429 1431 1434 1437 1441 1444 1447 1446 1451 1449 1444 1443 1437 1437 1442 1439 1437 1440 1437 1436 1440 1440 1440 1442 1443 1443 1441 1441 1439 1440 1445 1438 1440 1431 1427 1428 1401 1391 1391 1394 1390 1385
1415 1415 1416 1418 1420 1422 1424 1427 1431 1434 1439 1440 1444 1446 1446 1441 1438 1437 1435 1438 1440 1440 1439 1439 1439 1437 1440 1442 1442 1436 1434 1436 1432 1431 1432 1437 1444 1441 1431 1419 1407 1399 1392 1395 1392 1390 1389
1406 1407 1408 1409 1411 1413 1416 1419 1422 1427 1431 1435 1437 1442 1445 1442 1434 1435 1436 1436 1436 1434 1434 1432 1433 1437 1440 1444 1441 1432 1420 1413 1411 1412 1421 1427 1435 1440 1431 1426 1415 1387 1394 1398 1398 1396 1397
1395 1397 1398 1399 1400 1402 1405 1408 1412 1417 1422 1427 1429 1435 1441 1439 1435 1434 1432 1431 1430 1430 1430 1431 1430 1433 1440 1441 1438 1426 1413 1409 1406 1405 1413 1423 1435 1434 1427 1425 1413 1398 1398 1401 1404 1407 1401
1385 1386 1387 1388 1389 1391 1394 1397 1401 1406 1412 1418 1419 1428 1432 1433 1431 1432 1433 1431 1430 1429 1430 1429 1431 1432 1438 1438 1426 1417 1410 1406 1401 1397 1404 1415 1424 1429 1426 1428 1421 1399 1401 1402 1402 1401 1398
1373 1374 1376 1377 1379 1381 1383 1386 1389 1394 1399 1408 1412 1418 1426 1431 1428 1428 1428 1428 1430 1429 1430 1430 1427 1428 1427 1427 1418 1411 1411 1405 1401 1400 1399 1412 1401 1403 1406 1405 1400 1399 1401 1400 1399 1398 1397